This is the latest recevied weather packets stored in our database for station/object DC1RS. If no packets are shown the sender has not sent any weather packets the latest 10 day(s).
| Time | Temp. | Humidity | Pressure | Rain* | Wind** | Luminosity | Snow |
|---|---|---|---|---|---|---|---|
| 1777955151 | 11.67° C | 82% | 1008.2 hPa | 0 mm | - | 25 W/m² | - |
| 1777954851 | 11.11° C | 81% | 1008.2 hPa | 0 mm | - | 20 W/m² | - |
| 1777953321 | 11.67° C | 79% | 1008.3 hPa | 0 mm | - | 7 W/m² | - |
| 1777951731 | 11.67° C | 78% | 1008.1 hPa | 0 mm | - | 0 W/m² | - |
| 1777949621 | 12.78° C | 75% | 1008.1 hPa | 0 mm | - | 0 W/m² | - |
| 1777947891 | 13.89° C | 71% | 1007.8 hPa | 0 mm | - | 0 W/m² | - |
| 1777946601 | 13.89° C | 70% | 1008 hPa | 0 mm | - | 0 W/m² | - |
| 1777945011 | 13.89° C | 70% | 1007.8 hPa | 0 mm | - | 0 W/m² | - |
| 1777942330 | 14.44° C | 68% | 1008.1 hPa | 0 mm | - | 0 W/m² | - |
| 1777940741 | 15° C | 66% | 1008.3 hPa | 0 mm | - | 0 W/m² | - |
| 1777939341 | 15° C | 66% | 1008.9 hPa | 0 mm | - | 0 W/m² | - |
| 1777937721 | 16.11° C | 59% | 1008.7 hPa | 0 mm | - | 0 W/m² | - |
| 1777936131 | 16.67° C | 57% | 1008.7 hPa | 0 mm | - | 0 W/m² | - |
| 1777935941 | 16.67° C | 58% | 1008.8 hPa | 0 mm | - | 0 W/m² | - |
| 1777934382 | 16.11° C | 58% | 1008.7 hPa | 0 mm | - | 0 W/m² | - |
| 1777932651 | 16.67° C | 56% | 1008.9 hPa | 0 mm | - | 0 W/m² | - |
| 1777930872 | 17.78° C | 53% | 1008.7 hPa | 0 mm | - | 0 W/m² | - |
| 1777929342 | 18.33° C | 51% | 1008.6 hPa | 0 mm | - | 0 W/m² | - |
| 1777927641 | 20° C | 45% | 1008.7 hPa | 0 mm | - | 0 W/m² | - |
| 1777926081 | 20.56° C | 46% | 1008.7 hPa | 0 mm | - | 0 W/m² | - |
| 1777924777 | 21.11° C | 44% | 1008.6 hPa | 0 mm | - | 0 W/m² | - |
| 1777923071 | 21.67° C | 47% | 1008.6 hPa | 0 mm | - | 0 W/m² | - |
| 1777921451 | 21.67° C | 46% | 1008.8 hPa | 0 mm | - | 0 W/m² | - |
| 1777920491 | 21.67° C | 44% | 1008.9 hPa | 0 mm | - | 0 W/m² | - |
| 1777918992 | 22.22° C | 43% | 1008.9 hPa | 0 mm | - | 2 W/m² | - |
* Rain latest hour (hover to see other rain measurements)
** Current wind speed in m/s (hover to see current wind gust speed)